Regional Weather Roundup
Issued by NWS Green Bay, WI

Home | Current Version | Previous Version | Graphics & Text | Print | Product List | Glossary Off
Versions: 1 2 3 4 5 6 7 8 9 10 11 12 13 14 15 16 17 18 19 20 21 22 23 24 25 26 27 28 29 30 31 32 33 34 35 36 37 38 39 40 41 42 43 44 45 46 47 48 49 50

947
ASUS43 KGRB 242000
RWRGRB

NORTH-CENTRAL AND NORTHEAST WISCONSIN REGIONAL WEATHER ROUNDUP
NATIONAL WEATHER SERVICE GREEN BAY WI
300 PM CDT TUE MAY 24 2016

WIZ005-009-010>012-018-019-242100-
NORTH CENTRAL WISCONSIN

CITY           SKY/WX    TMP DP  RH WIND       PRES   REMARKS
IRONWOOD       NOT AVBL
MANITOWISH WTR NOT AVBL
ARBOR VITAE    NOT AVBL
EAGLE RIVER    NOT AVBL
LAND O LAKES   NOT AVBL
RHINELANDER    MOSUNNY   74  59  59 S8G17     29.92F
PHILLIPS       NOT AVBL
ANTIGO         NOT AVBL
TOMAHAWK       NOT AVBL
MERRILL        CLOUDY    73  61  64 SW10G16   29.93S
$$

WIZ013-073-242100-
NORTHEAST WISCONSIN

CITY           SKY/WX    TMP DP  RH WIND       PRES   REMARKS
IRON MOUNTAIN  HVY RAIN  65  62  90 W9        29.91R VSB 1
MARINETTE      CLOUDY    79  61  53 SW10      29.89S
$$

WIZ017-030-035>037-045-242100-
CENTRAL WISCONSIN

CITY           SKY/WX    TMP DP  RH WIND       PRES   REMARKS
MEDFORD        NOT AVBL
WAUSAU         CLOUDY    76  61  59 S7        29.90F
MOSINEE        MOSUNNY   73  64  73 SW7       29.93F
MARSHFIELD     PTSUNNY   80  57  45 NW15      29.91S
WISC RAPIDS    CLOUDY    80  55  42 W12       29.92F
STEVENS POINT  NOT AVBL
WAUPACA        NOT AVBL
SHAWANO        NOT AVBL
CLINTONVILLE   NOT AVBL
WAUTOMA        CLOUDY    80  59  48 W10       29.91F
$$

WIZ038-039-048-051-242100-
FOX VALLEY

CITY           SKY/WX    TMP DP  RH WIND       PRES   REMARKS
NWS GREEN BAY  CLOUDY    83  57  41 SW16G25   29.88F
APPLETON       PTSUNNY   81  54  39 SW16G24   29.89F
OSHKOSH        CLOUDY    81  58  45 SW12G24   29.90F
FOND DU LAC    MOSUNNY   81  58  45 SW15      29.91F
$$

WIZ022-050-052-242100-
EAST CENTRAL WISCONSIN

CITY           SKY/WX    TMP DP  RH WIND       PRES   REMARKS
EPHRAIM        NOT AVBL
STURGEON BAY   NOT AVBL
MANITOWOC      NOT AVBL
SHEBOYGAN      CLOUDY    72  65  78 S10       29.94R THUNDER
$$

LMZ563-521-522-541>543-242100-
LAKESHORE

STATION/POSITION TIME  TEMP    WIND        PRES    VSBY  WAVE
                       AIR SEA DIR/SP/G                  HT/PER
                 (UTC) (F)     (DEG/KT/KT) (MB)    (MI)  (FT/S)
SHEBOYGAN LKSHOR 1900   59     170/ 21/ 21 1013.5F
KEWAUNEE LKSHORE 1900   54     180/ 13/ 14 1012.8R
ALGOMA MARINA    1917          230/ 12/ 14   N/A
NORTHPORT PIER   1900   53     140/ 10/ 12 1012.5S
N MID LAKE BUOY  1850   48 45  180/  8/ 10 1012.6F         1/ 4
SISTER BAY LKSHO 1919          300/  5/  7   N/A
CHAMBERS ISLAND  1940   73     170/  6/ 13 1012.2S
MENOMINEE LKSHOR 1900   66     150/  9/  9 1011.2R
$$




USA.gov is the U.S. government's official web portal to all federal, state and local government web resources and services.